Tampa, FL

4:51 AM EDT on September 27, 2016 (GMT -0400)
Knight

Weather History for KTPF - March, 2013

Change the Weather History Date:

Wednesday, March 6, 2013

  Actual Average (KTPA) Record (KTPA)
Temperature  
Mean Temperature 58 °F 66 °F  
Max Temperature 64 °F 75 °F 86 °F (1961)
Min Temperature 51 °F 57 °F 37 °F (1893)
Degree Days  
Heating Degree Days 8 3  
Month to date heating degree days 18  
Since 1 July heating degree days 489  
Cooling Degree Days 0 3  
Month to date cooling degree days 18  
Year to date cooling degree days 131  
Growing Degree Days 8 (Base 50)    
Moisture  
Dew Point 42 °F    
Average Humidity 58    
Maximum Humidity 94    
Minimum Humidity 34    
Precipitation  
Precipitation 0.00 in 0.10 in 2.24 in (1950)
Month to date precipitation 0.57  
Year to date precipitation 5.61  
Sea Level Pressure  
Sea Level Pressure 30.09 in    
Wind  
Wind Speed 10 mph (NW)    
Max Wind Speed 15 mph    
Max Gust Speed 25 mph    
Visibility 10 miles    
Events Rain    
T = Trace of Precipitation, MM = Missing Value Source: NWS Daily Summary

Daily Weather History Graph

Daily Weather History Graph

Search for Another Location

Airport or City:

Trip Planner

Search our weather history database for the weather conditions in past years. The results will help you decide how hot, cold, wet, or windy it might be!

Date:

Astronomy

Mar. 06, 2013 Rise Set
Actual Time 6:48 AM EST 6:33 PM EST
Civil Twilight 6:25 AM EST 6:56 PM EST
Nautical Twilight 5:58 AM EST 7:24 PM EST
Astronomical Twilight 5:31 AM EST 7:51 PM EST
Moon 2:35 AM EST (3/6) 1:34 PM EST (3/6)
Length of Visible Light 12h 31m
Length of Day
11h 44m
Waning Crescent, 30% of the Moon is Illuminated
Mar 6
Waning Crescent
Mar 11
New
Mar 19
First Quarter
Mar 27
Full
Apr 3
Last Quarter

Hourly Weather History & Observations

Time (EST) Temp. Dew Point Humidity Pressure Visibility Wind Dir Wind Speed Gust Speed Precip Events Conditions
12:15 AM 62.6 °F 60.8 °F 94% 30.05 in 10.0 mi SW 12.7 mph 18.4 mph N/A   Scattered Clouds
12:35 AM 62.6 °F 60.8 °F 94% 30.05 in 10.0 mi SW 10.4 mph - N/A   Mostly Cloudy
12:55 AM 64.4 °F 60.8 °F 88% 30.04 in 10.0 mi SW 9.2 mph - N/A   Mostly Cloudy
1:15 AM 64.4 °F 60.8 °F 88% 30.03 in 10.0 mi SW 11.5 mph 16.1 mph N/A   Overcast
1:35 AM 64.4 °F 60.8 °F 88% 30.03 in 10.0 mi SW 8.1 mph 18.4 mph N/A   Mostly Cloudy
1:55 AM 62.6 °F 60.8 °F 94% 30.02 in 10.0 mi SW 11.5 mph 17.3 mph N/A   Scattered Clouds
2:15 AM 64.4 °F 60.8 °F 88% 30.01 in 10.0 mi SW 12.7 mph 18.4 mph N/A   Mostly Cloudy
2:35 AM 62.6 °F 60.8 °F 94% 30.01 in 10.0 mi SW 9.2 mph - N/A   Scattered Clouds
2:55 AM 64.4 °F 60.8 °F 88% 30.00 in 10.0 mi SW 9.2 mph 16.1 mph N/A   Mostly Cloudy
3:15 AM 64.4 °F 60.8 °F 88% 29.99 in 10.0 mi SW 9.2 mph - N/A   Overcast
3:35 AM 64.4 °F 60.8 °F 88% 29.98 in 10.0 mi SW 10.4 mph 17.3 mph N/A   Overcast
3:55 AM 64.4 °F 60.8 °F 88% 29.99 in 10.0 mi WSW 8.1 mph 17.3 mph N/A   Overcast
4:15 AM 64.4 °F 60.8 °F 88% 29.98 in 10.0 mi WSW 8.1 mph 16.1 mph N/A   Overcast
4:35 AM 64.4 °F 60.8 °F 88% 29.98 in 10.0 mi WSW 8.1 mph - N/A   Overcast
4:55 AM 64.4 °F 60.8 °F 88% 29.98 in 10.0 mi WSW 6.9 mph - N/A   Overcast
5:15 AM 62.6 °F 55.4 °F 77% 30.01 in 10.0 mi NNW 11.5 mph 21.9 mph N/A Rain Light Rain
5:35 AM 60.8 °F 55.4 °F 82% 30.02 in 10.0 mi NNW 10.4 mph 18.4 mph N/A   Overcast
5:55 AM 59.0 °F 53.6 °F 82% 30.04 in 10.0 mi NNW 8.1 mph 18.4 mph N/A   Overcast
6:15 AM 55.4 °F 44.6 °F 67% 30.06 in 10.0 mi NNW 12.7 mph 20.7 mph N/A   Overcast
6:35 AM 55.4 °F 42.8 °F 63% 30.07 in 10.0 mi NNW 10.4 mph 18.4 mph N/A   Overcast
6:55 AM 53.6 °F 37.4 °F 54% 30.07 in 10.0 mi North 12.7 mph 20.7 mph N/A   Scattered Clouds
7:15 AM 53.6 °F 35.6 °F 51% 30.09 in 10.0 mi NNW 10.4 mph 21.9 mph N/A   Scattered Clouds
7:35 AM 53.6 °F 37.4 °F 54% 30.10 in 10.0 mi North 5.8 mph 19.6 mph N/A   Scattered Clouds
7:55 AM 53.6 °F 37.4 °F 54% 30.11 in 10.0 mi North 13.8 mph 25.3 mph N/A   Scattered Clouds
8:15 AM 53.6 °F 37.4 °F 54% 30.13 in 10.0 mi North 8.1 mph 21.9 mph N/A   Scattered Clouds
8:35 AM 53.6 °F 35.6 °F 51% 30.14 in 10.0 mi North 10.4 mph 23.0 mph N/A   Clear
8:55 AM 53.6 °F 33.8 °F 47% 30.14 in 10.0 mi North 11.5 mph 23.0 mph N/A   Clear
9:15 AM 53.6 °F 35.6 °F 51% 30.14 in 10.0 mi North 10.4 mph 18.4 mph N/A   Clear
9:35 AM 55.4 °F 37.4 °F 51% 30.15 in 10.0 mi North 10.4 mph 21.9 mph N/A   Clear
9:55 AM 57.2 °F 37.4 °F 48% 30.14 in 10.0 mi NNW 12.7 mph 19.6 mph N/A   Clear
10:15 AM 59.0 °F 37.4 °F 45% 30.15 in 10.0 mi NW 9.2 mph 17.3 mph N/A   Clear
10:35 AM 59.0 °F 37.4 °F 45% 30.15 in 10.0 mi North 13.8 mph 18.4 mph N/A   Clear
10:55 AM 59.0 °F 37.4 °F 45% 30.15 in 10.0 mi NW 8.1 mph 23.0 mph N/A   Clear
11:15 AM 59.0 °F 33.8 °F 39% 30.15 in 10.0 mi North 12.7 mph 23.0 mph N/A   Clear
11:35 AM 60.8 °F 32.0 °F 34% 30.14 in 10.0 mi NNW 10.4 mph 19.6 mph N/A   Clear
11:55 AM 60.8 °F 32.0 °F 34% 30.13 in 10.0 mi NW 10.4 mph 17.3 mph N/A   Clear
12:15 PM 60.8 °F 32.0 °F 34% 30.11 in 10.0 mi North - - N/A   Clear
12:35 PM 60.8 °F 33.8 °F 36% 30.11 in 10.0 mi NW 9.2 mph 20.7 mph N/A   Clear
12:55 PM 60.8 °F 32.0 °F 34% 30.10 in 10.0 mi NW 11.5 mph 20.7 mph N/A   Clear
1:15 PM 60.8 °F 35.6 °F 39% 30.09 in 10.0 mi WNW 11.5 mph 19.6 mph N/A   Clear
1:35 PM 62.6 °F 33.8 °F 34% 30.08 in 10.0 mi WNW 15.0 mph 19.6 mph N/A   Clear
1:55 PM 60.8 °F 33.8 °F 36% 30.08 in 10.0 mi NW 13.8 mph 23.0 mph N/A   Clear
2:15 PM 60.8 °F 35.6 °F 39% 30.08 in 10.0 mi West 11.5 mph 19.6 mph N/A   Clear
2:35 PM 60.8 °F 35.6 °F 39% 30.08 in 10.0 mi NW 12.7 mph 19.6 mph N/A   Clear
2:55 PM 60.8 °F 33.8 °F 36% 30.07 in 10.0 mi NW 10.4 mph 21.9 mph N/A   Clear
3:15 PM 59.0 °F 32.0 °F 36% 30.07 in 10.0 mi NW 11.5 mph 25.3 mph N/A   Clear
3:35 PM 59.0 °F 32.0 °F 36% 30.07 in 10.0 mi NW 12.7 mph 21.9 mph N/A   Clear
4:15 PM 59.0 °F 35.6 °F 42% 30.07 in 10.0 mi NW 9.2 mph - N/A   Clear
4:35 PM 59.0 °F 35.6 °F 42% 30.07 in 10.0 mi NW 12.7 mph 20.7 mph N/A   Clear
4:55 PM 59.0 °F 33.8 °F 39% 30.07 in 10.0 mi North - - N/A   Clear
5:15 PM 57.2 °F 35.6 °F 44% 30.07 in 10.0 mi WNW 9.2 mph 20.7 mph N/A   Clear
5:35 PM 55.4 °F 35.6 °F 47% 30.08 in 10.0 mi NW 10.4 mph 17.3 mph N/A   Clear
5:55 PM 55.4 °F 35.6 °F 47% 30.08 in 10.0 mi WNW 9.2 mph - N/A   Clear
6:15 PM 55.4 °F 35.6 °F 47% 30.08 in 10.0 mi NW 9.2 mph 17.3 mph N/A   Clear
6:35 PM 53.6 °F 35.6 °F 51% 30.09 in 10.0 mi NW 12.7 mph 18.4 mph N/A   Clear
6:55 PM 53.6 °F 35.6 °F 51% 30.10 in 10.0 mi NW 8.1 mph - N/A   Clear
7:15 PM 53.6 °F 35.6 °F 51% 30.10 in 10.0 mi NNW 6.9 mph - N/A   Clear
7:35 PM 53.6 °F 35.6 °F 51% 30.11 in 10.0 mi NNW 3.5 mph - N/A   Clear
7:55 PM 53.6 °F 35.6 °F 51% 30.11 in 10.0 mi NW 4.6 mph - N/A   Clear
8:15 PM 53.6 °F 37.4 °F 54% 30.11 in 10.0 mi NW 4.6 mph - N/A   Clear
8:35 PM 53.6 °F 37.4 °F 54% 30.11 in 10.0 mi NW 5.8 mph - N/A   Clear
8:55 PM 53.6 °F 37.4 °F 54% 30.12 in 10.0 mi NW 5.8 mph - N/A   Clear
9:35 PM 53.6 °F 37.4 °F 54% 30.14 in 10.0 mi Calm Calm - N/A   Clear
9:55 PM 51.8 °F 37.4 °F 58% 30.15 in 10.0 mi Calm Calm - N/A   Clear
10:15 PM 51.8 °F 37.4 °F 58% 30.16 in 10.0 mi Calm Calm - N/A   Clear
10:35 PM 51.8 °F 37.4 °F 58% 30.16 in 10.0 mi Calm Calm - N/A   Clear
10:55 PM 51.8 °F 37.4 °F 58% 30.16 in 10.0 mi North 3.5 mph - N/A   Clear
11:15 PM 51.8 °F 35.6 °F 54% 30.16 in 10.0 mi NNW 3.5 mph - N/A   Clear
11:35 PM 51.8 °F 35.6 °F 54% 30.17 in 10.0 mi Calm Calm - N/A   Clear
11:55 PM 51.8 °F 35.6 °F 54% 30.16 in 10.0 mi North 6.9 mph - N/A   Clear